Weather History for KMNN - January, 2013

Change the Weather History Date:

Tuesday, January 29, 2013

  Actual Average (KDLZ) Record (KDLZ)
Temperature  
Mean Temperature 52 °F -  
Max Temperature 60 °F 35 °F 60 °F (2013)
Min Temperature 45 °F 18 °F -10 °F (1963)
Degree Days  
Heating Degree Days 13    
Growing Degree Days 2 (Base 50)    
Moisture  
Dew Point 50 °F    
Average Humidity 91    
Maximum Humidity 100    
Minimum Humidity 77    
Precipitation  
Precipitation 0.11 in - - ()
Sea Level Pressure  
Sea Level Pressure 29.87 in    
Wind  
Wind Speed 13 mph (SSW)    
Max Wind Speed 24 mph    
Max Gust Speed 31 mph    
Visibility 5 miles    
Events Fog , Rain    
Averages and records for this station are not official NWS values.
T = Trace of Precipitation, MM = Missing Value Source: NWS Daily Summary

Daily Weather History Graph

Daily Weather History Graph

Search for Another Location

Airport or City:

Trip Planner

Search our weather history database for the weather conditions in past years. The results will help you decide how hot, cold, wet, or windy it might be!

Date:

Astronomy

Jan. 29, 2013 Rise Set
Actual Time 7:44 AM EST 5:46 PM EST
Civil Twilight 7:15 AM EST 6:15 PM EST
Nautical Twilight 6:42 AM EST 6:48 PM EST
Astronomical Twilight 6:10 AM EST 7:20 PM EST
Moon 8:43 PM EST (1/29) 8:40 AM EST (1/29)
Length of Visible Light 11h 00m
Length of Day
10h 02m
Waning Gibbous, 94% of the Moon is Illuminated
Jan 29
Waning Gibbous
Feb 3
Last Quarter
Feb 10
New
Feb 17
First Quarter
Feb 25
Full

Hourly Weather History & Observations

Time (EST) Temp. Windchill Dew Point Humidity Pressure Visibility Wind Dir Wind Speed Gust Speed Precip Events Conditions
12:53 AM 45.0 °F 41.8 °F 45.0 °F 100% 30.04 in 0.2 mi South 5.8 mph - N/A Fog Fog
1:53 AM 46.0 °F 41.9 °F 45.0 °F 96% 30.03 in 0.2 mi South 8.1 mph - N/A Fog Fog
2:53 AM 45.0 °F 40.6 °F 45.0 °F 100% 30.03 in 0.2 mi South 8.1 mph - 0.01 in Fog Fog
3:53 AM 46.0 °F 41.4 °F 46.0 °F 100% 30.01 in 0.2 mi South 9.2 mph - N/A Fog Fog
4:53 AM 46.9 °F - 46.9 °F 100% 29.98 in 0.2 mi South 9.2 mph - N/A Fog Fog
5:25 AM 48.2 °F - 48.2 °F 100% 29.96 in 1.2 mi South 11.5 mph - N/A   Overcast
5:36 AM 48.2 °F - 48.2 °F 100% 29.95 in 2.5 mi South 11.5 mph - N/A   Overcast
5:53 AM 48.9 °F - 48.0 °F 97% 29.97 in 3.0 mi SSW 12.7 mph - N/A   Overcast
6:40 AM 48.2 °F - 48.2 °F 100% 29.95 in 2.5 mi South 12.7 mph - N/A   Overcast
6:53 AM 48.0 °F - 48.0 °F 100% 29.96 in 2.5 mi South 13.8 mph - N/A   Overcast
7:36 AM 48.2 °F - 46.4 °F 93% 29.93 in 3.0 mi SSW 16.1 mph - N/A   Overcast
7:53 AM 48.0 °F - 46.9 °F 96% 29.96 in 4.0 mi SSW 17.3 mph - N/A   Overcast
8:11 AM 48.2 °F - 46.4 °F 93% 29.93 in 3.0 mi SSW 18.4 mph - N/A   Mostly Cloudy
8:27 AM 48.2 °F - 46.4 °F 93% 29.93 in 3.0 mi SSW 17.3 mph - N/A   Mostly Cloudy
8:53 AM 48.9 °F - 48.0 °F 97% 29.94 in 4.0 mi SSW 16.1 mph - N/A   Mostly Cloudy
9:53 AM 52.0 °F - 50.0 °F 93% 29.92 in 6.0 mi SSW 19.6 mph 26.5 mph N/A   Overcast
10:49 AM 53.6 °F - 51.8 °F 94% 29.91 in 6.0 mi SSW 18.4 mph 27.6 mph N/A   Overcast
10:53 AM 55.0 °F - 52.0 °F 89% 29.92 in 6.0 mi SSW 17.3 mph 27.6 mph N/A   Overcast
11:53 AM 57.0 °F - 53.1 °F 87% 29.89 in 7.0 mi SSW 21.9 mph 29.9 mph N/A   Mostly Cloudy
12:53 PM 55.9 °F - 53.1 °F 90% 29.88 in 5.0 mi SSW 19.6 mph 28.8 mph 0.00 in Rain Light Rain
1:38 PM 55.4 °F - 53.6 °F 94% 29.84 in 2.5 mi SSW 17.3 mph - 0.06 in Rain Light Rain
1:45 PM 57.2 °F - 53.6 °F 88% 29.84 in 5.0 mi SSW 18.4 mph 26.5 mph 0.06 in Rain Light Rain
1:53 PM 55.9 °F - 54.0 °F 93% 29.86 in 5.0 mi SSW 16.1 mph - 0.07 in Rain Light Rain
2:03 PM 57.2 °F - 53.6 °F 88% 29.85 in 2.5 mi SSW 11.5 mph - 0.03 in Rain Light Rain
2:11 PM 57.2 °F - 55.4 °F 94% 29.84 in 6.0 mi SSW 15.0 mph - 0.03 in   Overcast
2:53 PM 59.0 °F - 55.0 °F 87% 29.83 in 7.0 mi SSW 17.3 mph 23.0 mph 0.03 in   Scattered Clouds
3:53 PM 59.0 °F - 54.0 °F 83% 29.83 in 8.0 mi SSW 16.1 mph - N/A   Mostly Cloudy
4:53 PM 59.0 °F - 53.1 °F 81% 29.81 in 10.0 mi SSW 16.1 mph - 0.00 in   Overcast
5:53 PM 59.0 °F - 53.1 °F 81% 29.80 in 10.0 mi SSW 18.4 mph 24.2 mph N/A   Overcast
6:53 PM 57.0 °F - 53.1 °F 87% 29.78 in 10.0 mi South 12.7 mph - N/A   Partly Cloudy
7:53 PM 57.9 °F - 52.0 °F 81% 29.76 in 10.0 mi South 15.0 mph - N/A   Scattered Clouds
8:53 PM 57.9 °F - 52.0 °F 81% 29.73 in 10.0 mi South 15.0 mph - N/A   Scattered Clouds
9:53 PM 57.0 °F - 51.1 °F 81% 29.70 in 10.0 mi South 19.6 mph 24.2 mph N/A   Mostly Cloudy
10:45 PM 59.0 °F - 51.8 °F 77% 29.65 in 10.0 mi South 21.9 mph 31.1 mph N/A   Mostly Cloudy
10:53 PM 59.0 °F - 52.0 °F 78% 29.65 in 10.0 mi South 24.2 mph 31.1 mph N/A   Scattered Clouds
11:53 PM 60.1 °F - 54.0 °F 80% 29.62 in 10.0 mi South 23.0 mph 28.8 mph N/A   Clear